FW7576 Weather Reports


time (UTC)temp
F
wind
direction
speed
knots
gust
knots
rain 1hr
in
rain 24hr
in
rain mn
in
humidity
%
barometer
mb
20260902091541 73 0 0.0 0.0 0.00 0.07 0.00 84 1014.4
20260902090043 74 0 0.0 0.0 0.00 0.07 0.00 84 1014.1
20260902084556 74 0 0.0 0.0 0.00 0.07 0.00 85 1014.1
20260902083047 74 0 0.0 0.0 0.00 0.07 0.00 85 1014.3
20260902081545 74 0 0.0 0.0 0.00 0.07 0.00 85 1014.0
20260902080055 75 0 0.0 0.0 0.00 0.07 0.00 85 1013.8
20260902074546 75 0 0.0 0.0 0.00 0.07 0.00 86 1014.2
20260902073046 76 0 0.0 0.0 0.00 0.07 0.00 86 1014.1
20260902071542 76 0 0.0 1.7 0.00 0.07 0.00 86 1014.1
20260902070044 76 0 0.0 0.0 0.00 0.07 0.00 86 1014.1
20260902064540 76 0 0.0 0.0 0.00 0.07 0.00 86 1013.9
20260902063043 76 0 0.0 0.0 0.00 0.07 0.00 85 1013.9
20260902060048 76 0 0.0 0.0 0.00 0.07 0.00 85 1014.4
20260902054547 76 0 0.0 0.0 0.00 0.07 0.00 86 1014.4
20260902053041 76 0 0.0 0.0 0.00 0.07 0.00 86 1014.2
20260902051547 76 0 0.0 0.0 0.00 0.07 0.00 86 1014.0
20260902050042 77 0 0.0 0.0 0.00 0.07 0.00 86 1013.8
20260902044540 77 0 0.0 0.0 0.00 0.07 0.07 86 1014.1
20260902043057 77 0 0.0 0.0 0.00 0.07 0.07 87 1013.9
20260902041546 77 0 0.0 0.0 0.00 0.07 0.07 86 1014.0
20260902040044 77 215 0.0 0.9 0.00 0.07 0.07 86 1013.9
20260902034542 77 0 0.0 0.0 0.00 0.07 0.07 86 1013.6
20260902033057 77 0 0.0 0.9 0.00 0.07 0.07 86 1013.7
20260902031545 77 0 0.0 0.0 0.00 0.07 0.07 86 1014.0
20260902030042 77 0 0.0 0.0 0.00 0.07 0.07 86 1014.0
20260902024542 77 0 0.0 0.9 0.00 0.07 0.07 86 1014.1
20260902023049 77 0 0.0 0.0 0.00 0.07 0.07 87 1014.3
20260902021543 77 0 0.0 0.0 0.00 0.07 0.07 87 1014.4
20260902020042 78 0 0.0 0.0 0.00 0.07 0.07 87 1014.3
20260902014540 78 0 0.0 0.0 0.00 0.07 0.07 87 1014.3
20260902013044 78 0 0.0 0.0 0.00 0.07 0.07 87 1014.0
20260902011542 78 0 0.0 0.0 0.00 0.07 0.07 87 1014.0
20260902010046 78 0 0.0 0.0 0.00 0.07 0.07 87 1013.9
20260902004549 78 0 0.0 0.0 0.00 0.07 0.07 87 1013.7
20260902003048 79 0 0.0 0.0 0.00 0.07 0.07 86 1013.6
20260902001540 79 0 0.0 0.0 0.00 0.07 0.07 86 1013.7
20260902000051 79 0 0.0 0.9 0.00 0.07 0.07 86 1013.7
20260901234549 79 0 0.0 0.9 0.00 0.07 0.07 86 1013.6
20260901233046 79 0 0.0 0.0 0.00 0.07 0.07 85 1013.5
20260901231545 79 0 0.0 0.9 0.00 0.07 0.07 85 1013.0
20260901230046 79 0 0.0 0.9 0.01 0.07 0.07 84 1013.3
20260901224542 79 230 0.0 2.6 0.01 0.07 0.07 82 1013.7
20260901223043 79 250 0.9 3.5 0.01 0.07 0.07 81 1014.1
20260901221608 78 0 0.0 2.6 0.05 0.07 0.07 84 1013.9
20260901220056 78 283 0.0 4.3 0.04 0.06 0.06 83 1013.8
20260901214546 78 253 0.9 5.2 0.04 0.06 0.06 82 1013.9
20260901213103 78 251 0.0 5.2 0.04 0.06 0.06 82 1014.0
20260901211545 79 0 1.7 7.8 0.00 0.02 0.02 80 1014.0
20260901210041 80 259 2.6 8.7 0.02 0.02 0.02 82 1014.1
20260901204545 80 264 2.6 7.8 0.02 0.02 0.02 84 1013.9
20260901203055 81 264 0.9 4.3 0.02 0.02 0.02 84 1014.1
20260901201540 82 221 0.9 7.8 0.02 0.02 0.02 80 1014.3
20260901200050 84 267 4.3 10.4 0.00 0.00 0.00 76 1014.5
20260901194545 85 256 2.6 6.1 0.00 0.00 0.00 74 1013.9
20260901193057 86 224 2.6 9.6 0.00 0.00 0.00 72 1014.5
20260901191542 86 261 4.3 9.6 0.00 0.00 0.00 69 1014.6
20260901190041 86 258 6.1 10.4 0.00 0.00 0.00 69 1014.3
20260901184545 87 238 5.2 9.6 0.00 0.00 0.00 71 1014.3
20260901183042 87 239 4.3 9.6 0.00 0.00 0.00 71 1014.4
20260901181543 87 222 2.6 7.8 0.00 0.00 0.00 73 1014.2
20260901180044 86 240 3.5 7.8 0.00 0.00 0.00 73 1014.3
20260901174547 86 280 2.6 7.8 0.00 0.00 0.00 75 1014.3
20260901173046 85 205 3.5 8.7 0.00 0.00 0.00 78 1014.6
20260901171546 86 252 1.7 6.1 0.00 0.00 0.00 78 1014.7
20260901170047 85 242 0.9 7.0 0.00 0.00 0.00 79 1014.7
20260901164547 85 201 0.9 4.3 0.00 0.00 0.00 80 1014.8
20260901163043 84 248 0.9 3.5 0.00 0.00 0.00 80 1014.6
20260901161544 84 162 0.9 4.3 0.00 0.00 0.00 80 1014.9
20260901160046 84 226 0.9 3.5 0.00 0.00 0.00 79 1015.2
20260901154548 84 210 0.0 2.6 0.00 0.00 0.00 80 1015.0
20260901153055 84 254 0.0 1.7 0.00 0.00 0.00 79 1015.0
20260901151544 83 257 0.0 3.5 0.00 0.00 0.00 79 1014.8
20260901150050 82 247 1.7 3.5 0.00 0.00 0.00 81 1014.9
20260901144548 82 225 0.0 2.6 0.00 0.00 0.00 82 1015.0
20260901143053 81 266 0.9 3.5 0.00 0.00 0.00 83 1015.0
20260901141553 80 320 2.6 5.2 0.00 0.00 0.00 84 1015.1
20260901140045 79 247 2.6 4.3 0.00 0.00 0.00 84 1015.1
20260901134544 77 202 0.0 1.7 0.00 0.00 0.00 86 1015.0
20260901133043 77 213 0.0 4.3 0.00 0.00 0.00 86 1015.0
20260901131550 76 0 0.0 3.5 0.00 0.00 0.00 86 1014.9
20260901130045 75 0 0.0 0.9 0.00 0.00 0.00 87 1015.1
20260901124550 74 0 0.0 0.9 0.00 0.00 0.00 87 1015.0
20260901123050 74 0 0.0 0.9 0.00 0.00 0.00 86 1014.9
20260901121549 73 0 0.0 0.0 0.00 0.00 0.00 86 1014.9
20260901120047 73 0 0.0 0.9 0.00 0.00 0.00 86 1014.7
20260901114544 72 0 0.0 0.0 0.00 0.01 0.00 87 1014.4
20260901113043 72 0 0.0 0.0 0.00 0.01 0.00 87 1014.1
20260901111539 72 0 0.0 0.0 0.00 0.01 0.00 87 1013.9
20260901110045 73 0 0.0 0.0 0.00 0.01 0.00 87 1013.8
20260901104544 73 0 0.0 0.0 0.00 0.15 0.00 87 1013.8
20260901103048 74 0 0.0 1.7 0.00 0.15 0.00 87 1013.7
20260901101541 74 0 0.0 0.0 0.00 0.15 0.00 87 1013.7
20260901100043 74 0 0.0 0.0 0.00 0.15 0.00 87 1013.8
20260901094549 75 0 0.0 0.0 0.00 0.16 0.00 86 1013.6
20260901093046 76 0 0.0 3.5 0.00 0.16 0.00 86 1013.7